Regional Weather Roundup
Issued by NWS

Home | Current Version | Previous Version | Graphics & Text | Print | Product List | Glossary On
Versions: 1 2 3 4 5 6 7 8 9 10 11 12 13 14 15 16 17 18 19 20 21 22 23 24 25 26 27
000
ASUS45 KCYS 192110
RWRWY

WYOMING REGIONAL WEATHER ROUNDUP
NATIONAL WEATHER SERVICE CHEYENNE WY
300 PM MDT THU OCT 19 2017

NOTE:  "FAIR" INDICATES FEW OR NO CLOUDS BELOW 12,000 FEET
WITH NO SIGNIFICANT WEATHER AND/OR OBSTRUCTIONS TO VISIBILITY.

WYZ001-192200-
YELLOWSTONE NATIONAL PARK

CITY           SKY/WX    TMP DP  RH WIND       PRES   REMARKS
LK YELLOWSTONE   N/A     57  15  19 VRB3      30.01F
W YELLOWSTONE  NOT AVBL

$$
WYZ002>013-054>058-071-098>099-192200-
NORTHERN WYOMING

CITY           SKY/WX    TMP DP  RH WIND       PRES   REMARKS
JACKSON        FAIR      66  16  14 SW10G18   29.95F
CODY           FAIR      76  16  10 VRB6      29.82F
GREYBULL       FAIR      74  21  13 S9        29.77F
WORLAND        FAIR      77  24  14 SW6       29.78F
SHERIDAN       FAIR      81  26  13 E5        29.73F
BUFFALO        FAIR      80  18  10 NE6       29.77F
GILLETTE       FAIR      76  17  11 S20       29.78F
HULETT         FAIR      75  23  14 S13       29.82F
NEWCASTLE      FAIR      75  21  13 SE12G18   29.85F

$$
WYZ014>020-022>026-101>103-192200-
CENTRAL WYOMING

CITY           SKY/WX    TMP DP  RH WIND       PRES   REMARKS
BIG PINEY      FAIR      65  15  14 S8        30.01F
PINEDALE       FAIR      61   9  12 S8        30.03F
DUBOIS         FAIR      61   7  11 NW13G23   29.96F
LANDER         FAIR      67  22  18 VRB3      29.88F
RIVERTON       FAIR      67  20  16 VRB3      29.89F
CASPER         FAIR      72  15  11 SW25G32   29.89F
DOUGLAS        FAIR      77   9   7 SW20G28   29.89F

$$
WYZ021-027>030-104>119-192200-
SOUTHERN WYOMING

CITY           SKY/WX    TMP DP  RH WIND       PRES   REMARKS
EVANSTON       FAIR      68  14  12 SW13G22   30.01F
KEMMERER       FAIR      66  10  11 SW15      30.02F
FORT BRIDGER   FAIR      67  14  13 E3        30.04F
ROCK SPRINGS   FAIR      65   5   9 VRB3      30.01F
DIXON          FAIR      70  21  16 SW16G22   30.06F
RAWLINS        FAIR      68  12  11 SW20      30.02F
SARATOGA       FAIR      70  19  14 SW17      30.04F
LARAMIE        FAIR      67  16  14 W14G22    30.04F
CHEYENNE       FAIR      73  15  11 S6        29.98F
TORRINGTON     FAIR      81  16   9 SE12      29.86F
PINE BLUFFS    FAIR      73  19  13 S9G16     29.95F

$$




USA.gov is the U.S. government's official web portal to all federal, state and local government web resources and services.